カタログに戻る

FENGYUN 1C DEB

LostPO
NORAD 39112·DEBRIS·🇨🇳 China

打ち上げ May 10, 1999 から Taiyuan Satellite Launch Center

Loading…

次のパス (今後24時間)

TLE

古いSource: Space-Track

元期: Oct 29, 2022, 03:51 UTC

1 39112U 99025EVZ 22302.16087310  .00005628  00000-0  18964-2 0  9997
2 39112  99.1815 282.2880 0042349 260.8258  98.8134 14.36943104508937

AllMySatでFENGYUN 1C DEBをリアルタイム追跡

Download on the App Store